Regional Weather Roundup
Issued by NWS

Home | Current Version | Previous Version | Graphics & Text | Print | Product List | Glossary On
Versions: 1 2 3 4 5 6 7 8 9 10 11 12 13 14 15 16 17 18 19 20 21 22 23 24 25 26 27 28 29 30 31 32 33 34 35 36 37 38 39 40 41 42 43 44 45 46 47 48 49 50
000
ASUS43 KIND 301959
RWRIN

WEATHER ROUNDUP FOR INDIANA
NATIONAL WEATHER SERVICE INDIANAPOLIS IN
300 PM EST FRI JAN 30 2015

NOTE: "FAIR" INDICATES FEW OR NO CLOUDS BELOW 12,000 FEET WITH NO
SIGNIFICANT WEATHER AND/OR OBSTRUCTIONS TO VISIBILITY.

* - STATION DOES NOT REPORT WEATHER SUCH AS PRECIPITATION OR FOG.

+ - STATION NOT QUALITY CONTROLLED BY THE NATIONAL WEATHER SERVICE.
    USE DATA WITH CAUTION...ESPECIALLY DEWPOINT AND RELATIVE
    HUMIDITY OBSERVATIONS.

INZ001>003-010>013-019-020-302100-
NORTHWEST INDIANA

CITY           SKY/WX    TMP DP  RH WIND       PRES   REMARKS
GARY /AIRPORT/ MOSUNNY   30  12  47 N5        30.48F WCI  25
VALPARAISO     NOT AVBL

$$

LMZ046-743>745-302100-
SOUTHERN LAKE MICHIGAN

STATION/POSITION TIME  TEMP WIND        PRES
                       AIR  DIR/SP/G
                 (UTC) (F)  (DEG/KT/KT) (MB)
MICHIGAN CITY    1900   25  350/  8/ 10   N/A

$$

INZ004-005-014>016-021>024-302100-
NORTH CENTRAL INDIANA

CITY           SKY/WX    TMP DP  RH WIND       PRES   REMARKS
ELKHART        FLURRIES  25  10  54 NW6       30.46F WCI  18
GOSHEN         CLOUDY    25  14  63 NW9       30.44F WCI  15
SOUTH BEND     CLOUDY    26  17  68 N9        30.46F WCI  17

$$

INZ006>009-017-018-025>027-302100-
NORTHEAST INDIANA

CITY           SKY/WX    TMP DP  RH WIND       PRES   REMARKS
ANGOLA *+      MOSUNNY   21   9  58 VRB3      30.43R
FORT WAYNE     PTSUNNY   26  13  57 W12       30.45S WCI  16

$$

INZ028-029-035-036-043>045-051>053-302100-
WEST CENTRAL INDIANA

CITY           SKY/WX    TMP DP  RH WIND       PRES   REMARKS
GREENCASTLE +  SUNNY     32  10  40 NW3       30.45S
LAFAYETTE      PTSUNNY   30  16  56 NW8       30.48S WCI  22
TERRE HAUTE    SUNNY     36  18  48 NW8       30.47S

$$

INZ030>032-037>040-046>048-054>057-064-065-302100-
CENTRAL INDIANA

CITY           SKY/WX    TMP DP  RH WIND       PRES   REMARKS
ANDERSON       PTSUNNY   28  16  59 N12       30.45F WCI  18
COLUMBUS       MOSUNNY   32  14  47 N8        30.46F WCI  25
GREENWOOD *+   PTSUNNY   32  14  47 N8        30.45F WCI  25
INDIANAPOLIS   PTSUNNY   30  15  53 NW10      30.45S WCI  21
-EAGLE CREEK   MOSUNNY   31  15  52 N9        30.44F WCI  23
KOKOMO *+      CLOUDY    28  18  64 NW8       30.45S WCI  20
MT COMFORT *+  MOSUNNY   32   7  34 N10       30.45R WCI  24
SHELBYVILLE    MOSUNNY   32  16  51 N13       30.44F WCI  22

$$

INZ033-034-041-042-049-050-058-059-302100-
EAST CENTRAL INDIANA

CITY           SKY/WX    TMP DP  RH WIND       PRES   REMARKS
MUNCIE         PTSUNNY   26  16  65 N8        30.43F WCI  18

$$

INZ060-061-067>069-081>083-085>088-302100-
SOUTHWEST INDIANA

CITY           SKY/WX    TMP DP  RH WIND       PRES   REMARKS
EVANSVILLE     SUNNY     41  22  46 N10       30.47F
HUNTINGBURG *+ SUNNY     37  19  48 NW10      30.46F

$$

INZ062-063-066-070>080-084-089>092-302100-
SOUTH CENTRAL AND SOUTHEAST INDIANA

CITY           SKY/WX    TMP DP  RH WIND       PRES   REMARKS
BLOOMINGTON    SUNNY     35  15  44 VRB5      30.44F WCI  31
SEYMOUR +      SUNNY     37  18  44 MISG      30.44F

$$




USA.gov is the U.S. government's official web portal to all federal, state and local government web resources and services.